DW6399 Weather Reports


time (UTC)temp
F
wind
direction
speed
knots
gust
knots
rain 1hr
in
rain 24hr
in
rain mn
in
humidity
%
barometer
mb
20260509085403 58 187 4.3 12.2 0.00 0.00 0.00 38 1024.8
20260509084503 57 177 6.1 13.9 0.00 0.00 0.00 37 1025.0
20260509083625 57 165 7.0 13.9 0.00 0.00 0.00 36 1025.1
20260509082704 57 168 6.1 12.2 0.00 0.00 0.00 36 1025.2
20260509081804 57 182 4.3 12.2 0.00 0.00 0.00 36 1025.2
20260509080903 57 174 6.1 12.2 0.00 0.00 0.00 37 1025.3
20260509080025 56 169 7.0 13.0 0.00 0.00 0.00 36 1025.3
20260509075404 56 155 7.8 13.0 0.00 0.00 0.00 38 1025.3
20260509074525 56 163 7.0 14.8 0.00 0.00 0.00 37 1025.4
20260509073603 56 161 6.1 13.0 0.00 0.00 0.00 38 1025.5
20260509072704 55 166 7.0 13.9 0.00 0.00 0.00 37 1025.5
20260509071825 54 166 7.8 14.8 0.00 0.00 0.00 39 1025.6
20260509070903 54 167 9.6 15.6 0.00 0.00 0.00 39 1025.7
20260509070003 53 165 8.7 16.5 0.00 0.00 0.00 40 1025.6
20260509065453 53 164 7.8 13.9 0.00 0.00 0.00 41 1025.7
20260509064504 53 150 7.8 13.0 0.00 0.00 0.00 44 1025.7
20260509063625 52 151 7.0 12.2 0.00 0.00 0.00 45 1025.7
20260509062725 52 164 6.1 13.0 0.00 0.00 0.00 45 1025.8
20260509061804 51 168 7.0 13.0 0.00 0.00 0.00 48 1025.8
20260509060925 50 156 7.0 11.3 0.00 0.00 0.00 47 1025.9
20260509060004 50 156 7.0 11.3 0.00 0.00 0.00 47 1025.8
20260509055403 49 159 7.0 11.3 0.00 0.01 0.00 49 1025.8
20260509054524 48 151 6.1 9.6 0.00 0.01 0.00 52 1025.8
20260509053625 48 157 5.2 9.6 0.00 0.01 0.00 54 1025.8
20260509052704 47 163 5.2 8.7 0.00 0.01 0.00 57 1025.9
20260509050904 46 161 3.5 6.1 0.00 0.01 0.00 61 1025.6
20260509050004 46 158 3.5 6.1 0.00 0.01 0.00 60 1025.4
20260509045404 45 159 3.5 6.1 0.00 0.02 0.00 61 1025.9
20260509044504 44 155 2.6 4.3 0.00 0.02 0.00 62 1025.6
20260509043604 44 166 2.6 5.2 0.00 0.02 0.00 63 1025.6
20260509042703 42 164 2.6 4.3 0.00 0.02 0.00 64 1026.0
20260509041825 40 165 2.6 4.3 0.00 0.03 0.00 65 1026.0
20260509040925 39 147 1.7 4.3 0.00 0.03 0.00 67 1025.9
20260509040025 37 168 2.6 5.2 0.00 0.05 0.00 69 1025.0
20260509035404 36 172 1.7 5.2 0.00 0.05 0.00 71 1023.6
20260509034503 34 151 1.7 4.3 0.00 0.05 0.00 71 1026.3
20260509033624 34 152 1.7 3.5 0.00 0.05 0.00 71 1026.3
20260509032725 33 165 1.7 3.5 0.00 0.05 0.00 71 1026.2
20260509031824 33 163 2.6 4.3 0.00 0.05 0.00 72 1026.3
20260509030903 32 161 2.6 6.1 0.00 0.05 0.00 74 1026.3
20260509030004 31 171 1.7 5.2 0.00 0.05 0.00 75 1026.2
20260509025404 31 173 1.7 5.2 0.00 0.05 0.00 76 1026.3
20260509024503 30 173 0.9 5.2 0.00 0.05 0.00 76 1026.3
20260509023603 30 151 0.9 1.7 0.00 0.05 0.00 76 1026.4
20260509022703 30 151 0.0 1.7 0.00 0.05 0.00 76 1026.3
20260509021803 30 151 0.0 1.7 0.00 0.05 0.00 77 1026.3
20260509020903 30 151 0.0 0.9 0.00 0.05 0.00 77 1026.3
20260509020024 30 151 0.0 0.9 0.00 0.05 0.00 77 1026.2
20260509015403 30 187 0.9 3.5 0.00 0.05 0.00 77 1026.3
20260509014524 29 206 0.0 3.5 0.00 0.05 0.00 78 1026.4
20260509013604 30 200 0.0 1.7 0.00 0.05 0.00 78 1026.4
20260509012724 30 0 0.0 0.0 0.00 0.05 0.00 78 1026.4
20260509011804 30 120 0.0 0.9 0.00 0.05 0.00 78 1026.4
20260509010903 30 50 0.0 2.6 0.00 0.05 0.00 77 1026.3
20260509010004 30 335 0.0 2.6 0.00 0.05 0.00 77 1026.3
20260509005403 30 335 0.0 2.6 0.00 0.05 0.00 77 1026.3
20260509004524 30 335 0.0 0.9 0.00 0.05 0.00 77 1026.3
20260509003604 30 335 0.0 1.7 0.00 0.05 0.00 77 1026.4
20260509002725 30 335 0.0 1.7 0.00 0.05 0.00 78 1026.3
20260509001803 29 335 0.0 1.7 0.00 0.05 0.00 79 1026.3
20260509000904 30 335 0.9 2.6 0.00 0.05 0.00 78 1026.4
20260509000025 30 335 0.0 1.7 0.00 0.05 0.00 77 1026.4
20260508235404 30 0 0.0 0.0 0.00 0.05 0.00 78 1026.4
20260508234504 31 0 0.0 0.0 0.00 0.05 0.00 76 1026.3
20260508233603 31 0 0.0 0.0 0.00 0.05 0.00 77 1026.3
20260508232724 31 0 0.0 0.0 0.00 0.05 0.00 77 1026.3
20260508231803 31 0 0.0 0.0 0.00 0.05 0.00 76 1026.3
20260508230904 31 0 0.0 0.0 0.00 0.05 0.00 77 1026.3
20260508230003 31 0 0.0 0.0 0.00 0.05 0.00 76 1026.3
20260508225404 31 0 0.0 0.0 0.00 0.05 0.00 76 1026.3
20260508224503 31 0 0.0 0.0 0.00 0.05 0.00 76 1026.3
20260508223603 31 0 0.0 0.0 0.00 0.05 0.00 76 1026.2
20260508222724 31 0 0.0 0.0 0.00 0.05 0.00 76 1026.2
20260508221803 31 0 0.0 0.0 0.00 0.05 0.00 76 1026.3
20260508220904 31 0 0.0 0.0 0.00 0.05 0.00 75 1026.3
20260508220003 32 0 0.0 0.0 0.00 0.05 0.00 75 1026.2
20260508215403 32 0 0.0 0.0 0.00 0.05 0.00 74 1026.2
20260508214503 32 0 0.0 0.0 0.00 0.05 0.00 75 1026.2
20260508213603 33 335 0.0 1.7 0.00 0.05 0.00 75 1026.2
20260508212703 33 335 0.0 1.7 0.00 0.05 0.00 74 1026.1
20260508211804 33 335 0.9 1.7 0.00 0.05 0.00 74 1026.0
20260508210903 34 335 0.9 2.6 0.00 0.05 0.00 73 1026.0
20260508210004 34 335 0.9 2.6 0.00 0.05 0.00 74 1025.9
20260508205404 33 335 0.0 1.7 0.00 0.05 0.05 77 1025.8
20260508204503 32 335 0.0 0.9 0.00 0.05 0.05 76 1025.8
20260508203603 34 335 0.9 1.7 0.00 0.05 0.05 74 1025.8
20260508202724 35 335 1.7 2.6 0.00 0.05 0.05 73 1025.7
20260508201803 35 335 2.6 2.6 0.00 0.05 0.05 72 1025.7
20260508200904 35 335 2.6 2.6 0.00 0.05 0.05 71 1025.6
20260508200004 35 335 1.7 2.6 0.00 0.06 0.05 71 1025.6
20260508195403 36 335 1.7 2.6 0.00 0.06 0.05 71 1025.5
20260508194503 36 335 1.7 2.6 0.00 0.08 0.05 69 1025.3
20260508193603 35 335 2.6 4.3 0.00 0.10 0.05 72 1025.2
20260508192703 34 328 3.5 4.3 0.00 0.12 0.05 73 1025.1
20260508191804 36 315 2.6 3.5 0.00 0.14 0.05 70 1025.0
20260508190903 37 315 2.6 3.5 0.00 0.15 0.05 68 1025.0
20260508190025 38 315 2.6 3.5 0.00 0.15 0.05 64 1025.0
20260508185424 38 315 1.7 2.6 0.00 0.16 0.05 64 1024.9
20260508184504 38 315 1.7 2.6 0.00 0.16 0.05 64 1024.8
20260508183604 39 315 1.7 2.6 0.00 0.16 0.05 64 1024.6
20260508182703 39 315 1.7 2.6 0.00 0.17 0.05 63 1024.6
20260508181824 40 315 1.7 2.6 0.00 0.17 0.05 62 1024.5
20260508180904 42 315 2.6 2.6 0.00 0.18 0.05 60 1024.5
20260508180003 44 315 2.6 3.5 0.00 0.19 0.05 57 1024.5
20260508175403 45 315 1.7 3.5 0.00 0.20 0.05 54 1024.5
20260508174503 47 315 1.7 4.3 0.00 0.23 0.05 47 1024.4
20260508173603 49 317 3.5 5.2 0.00 0.23 0.05 43 1024.3
20260508172703 50 326 3.5 7.0 0.00 0.23 0.05 42 1024.3
20260508170903 51 313 4.3 7.8 0.00 0.24 0.05 40 1024.2
20260508170003 50 299 6.1 11.3 0.00 0.24 0.05 39 1024.2
20260508165403 50 308 7.0 11.3 0.00 0.24 0.05 40 1024.2
20260508164503 51 306 6.1 9.6 0.00 0.24 0.05 36 1024.2
20260508163603 52 292 6.1 11.3 0.00 0.24 0.05 37 1024.0
20260508162703 52 298 6.1 11.3 0.00 0.24 0.05 36 1023.9
20260508161803 52 289 6.1 11.3 0.00 0.24 0.05 35 1023.9
20260508160924 52 290 6.1 10.4 0.00 0.24 0.05 33 1023.8
20260508160024 52 292 7.0 12.2 0.00 0.24 0.05 35 1023.7
20260508155425 52 305 7.0 13.9 0.00 0.24 0.05 36 1023.6
20260508154504 52 284 7.0 13.0 0.00 0.24 0.05 37 1023.5
20260508153604 52 292 7.0 11.3 0.00 0.24 0.05 37 1023.4
20260508152704 52 307 7.8 13.0 0.00 0.24 0.05 36 1023.4
20260508151804 52 296 6.1 14.8 0.00 0.24 0.05 37 1023.3
20260508150904 53 291 6.1 10.4 0.00 0.24 0.05 37 1023.3
20260508150005 52 314 5.2 10.4 0.00 0.24 0.05 41 1023.2
20260508145425 52 316 6.1 10.4 0.00 0.24 0.05 41 1023.3
20260508144504 52 292 5.2 10.4 0.00 0.24 0.05 42 1023.3
20260508143604 52 298 5.2 10.4 0.00 0.24 0.05 42 1023.3
20260508142704 53 298 5.2 10.4 0.00 0.24 0.05 43 1023.3
20260508141804 53 289 7.0 13.0 0.00 0.24 0.05 43 1023.3
20260508140904 53 304 3.5 12.2 0.00 0.24 0.05 42 1023.3
20260508140005 52 306 7.0 12.2 0.00 0.24 0.05 43 1023.2
20260508134504 52 315 8.7 14.8 0.00 0.24 0.05 43 1023.3
20260508133604 52 311 7.0 12.2 0.00 0.24 0.05 43 1023.4
20260508132725 51 297 4.3 12.2 0.00 0.24 0.05 42 1023.4
20260508131804 51 291 7.8 13.0 0.00 0.24 0.05 43 1023.5
20260508130904 53 313 6.1 13.0 0.00 0.24 0.05 43 1023.3
20260508130005 53 317 7.8 13.0 0.00 0.24 0.05 43 1023.3
20260508125404 52 301 7.0 11.3 0.00 0.24 0.05 45 1023.3
20260508124504 50 326 4.3 11.3 0.00 0.24 0.05 47 1023.3
20260508123604 50 309 4.3 8.7 0.00 0.24 0.05 47 1023.4
20260508122704 51 293 6.1 11.3 0.00 0.24 0.05 46 1023.5
20260508121804 52 291 3.5 11.3 0.00 0.25 0.05 48 1023.4
20260508120904 53 186 3.5 8.7 0.00 0.25 0.05 51 1023.4
20260508120004 52 184 2.6 7.8 0.00 0.26 0.05 51 1023.3
20260508115404 51 261 2.6 7.8 0.00 0.26 0.05 49 1023.3
20260508114504 51 277 3.5 8.7 0.00 0.26 0.05 52 1023.4
20260508113604 51 277 4.3 13.0 0.00 0.26 0.05 52 1023.5
20260508112704 51 199 3.5 8.7 0.00 0.26 0.05 56 1023.4
20260508111804 50 200 3.5 9.6 0.00 0.26 0.05 58 1023.6
20260508110904 49 198 3.5 10.4 0.00 0.26 0.05 63 1023.6
20260508110004 48 267 5.2 13.0 0.00 0.26 0.05 60 1023.5
20260508105404 49 279 7.0 13.0 0.00 0.26 0.05 56 1023.5
20260508104504 50 321 7.0 12.2 0.00 0.26 0.05 55 1023.1